Location: Unspecified
(0.0000°N, 0.0000°E)
Time: 23:52:45
(UTC+00:00)

Hubble Space Telescope - Pass Details

Date: 14 February 2020
Orbit: 536 x 540 km, 28.5° (Epoch: 26 February)

Event Time Altitude Azimuth Distance (km) Brightness Sun altitude
Exits shadow 04:40:55 13° 12° (NNE) 1,607 3.1 -22.7°
Maximum altitude 04:41:55 14° 28° (NNE) 1,555 3.2 -22.4°
Drops below altitude 10° 04:44:01 10° 59° (ENE) 1,774 4.0 -21.9°
Sets 04:47:16 0° 85° (E) 2,666 5.6 -21.1°
